Find Starlink 31745

NORAD ID: 60329 Int'l Des: 2024-136 Owner: SPXS Country: US Constellation: starlink operational
LEOCIRCULAR

当前视图

正在加载3D地球...

About Starlink 31745

Starlink 31745 (NORAD 60329) is a starlink constellation satellite (v2 mini) launched Aug 2, 2024 by SPXS of US. It operates in LEO, CIRCULAR orbit with a mass of 730.00 kg.

关于 Starlink 31745

正在加载描述...

即将过境

Passes for default location (London). Set your location on the main map for personalized predictions.

高度历史

Loading altitude history...

两行轨道根数

1 60329U 24136A 26200.23811744 -.00000043 00000-0 10389-4 0 9999
2 60329 53.1597 184.0453 0001139 85.5327 274.5804 15.31701509111028
Epoch: Jul 19, 2026 • Age: 10 hours

当前状态

高度 471.2 km
远地点 / 近地点 N/A
速度 7.63 km/s
星下点 4.14°N, 176.53°W
发射日期 Aug 2, 2024
运行时间 1.9 years
类型 internet

技术详情

分类 Payload
质量 730.00 kg
干质量 700.00 kg
总质量 730.00 kg
长度 0.30 m
直径 4.10 m
跨度 29.00 m
形状 Box + pan
制造商 SPXS
平台类型 Starlink V2M
阶段状态 In Orbit
所有者/国家 SPXS/US

Most Searched